Cortez, CO

1:43 PM MDT on June 26, 2017 (GMT -0600)
Cortez Municipal

Weather History for KCEZ - January, 2013

Change the Weather History Date:

Tuesday, January 29, 2013

  Actual Average Record
Temperature  
Mean Temperature 22 °F 29 °F  
Max Temperature 29 °F 42 °F 54 °F (1998)
Min Temperature 14 °F 16 °F 1 °F (2008)
Degree Days  
Heating Degree Days 43 36  
Month to date heating degree days 1325 1076  
Since 1 July heating degree days 3779 3734  
Cooling Degree Days 0 0  
Month to date cooling degree days 0 0  
Year to date cooling degree days 0 0  
Moisture  
Dew Point 10 °F    
Average Humidity 63    
Maximum Humidity 84    
Minimum Humidity 42    
Precipitation  
Precipitation T in 0.04 in 0.02 in (2001)
Month to date precipitation 1.62 0.92  
Year to date precipitation 1.62 0.92  
Sea Level Pressure  
Sea Level Pressure 29.89 in    
Wind  
Wind Speed 7 mph (NW)    
Max Wind Speed 20 mph    
Max Gust Speed 25 mph    
Visibility 10 miles    
Events      
T = Trace of Precipitation, MM = Missing Value Source: NWS Daily Summary

Daily Weather History Graph

Daily Weather History Graph

Search for Another Location

Airport or City:

Trip Planner

Search our weather history database for the weather conditions in past years. The results will help you decide how hot, cold, wet, or windy it might be!

Date:

Astronomy

Jan. 29, 2013 Rise Set
Actual Time 7:19 AM MST 5:36 PM MST
Civil Twilight 6:52 AM MST 6:03 PM MST
Nautical Twilight 6:20 AM MST 6:35 PM MST
Astronomical Twilight 5:50 AM MST 7:05 PM MST
Moon 8:30 PM MST (1/29) 8:22 AM MST (1/29)
Length of Visible Light 11h 11m
Length of Day
10h 16m
Waning Gibbous, 93% of the Moon is Illuminated
Jan 29
Waning Gibbous
Feb 3
Last Quarter
Feb 10
New
Feb 17
First Quarter
Feb 25
Full

Hourly Weather History & Observations

Time (MST) Temp. Windchill Dew Point Humidity Pressure Visibility Wind Dir Wind Speed Gust Speed Precip Events Conditions
12:53 AM 21.0 °F - 16.0 °F 81% 29.83 in 10.0 mi Calm Calm - N/A   Mostly Cloudy
1:53 AM 21.9 °F - 18.0 °F 85% 29.81 in 10.0 mi Calm Calm - N/A   Overcast
2:53 AM 23.0 °F 13.1 °F 10.9 °F 60% 29.82 in 10.0 mi NNW 9.2 mph - 0.00 in   Overcast
3:53 AM 21.9 °F 15.7 °F 9.0 °F 58% 29.81 in 10.0 mi WNW 4.6 mph - N/A   Overcast
4:35 AM 21.2 °F 16.4 °F 8.6 °F 58% 29.78 in 10.0 mi Variable 3.5 mph - N/A   Overcast
4:49 AM 21.2 °F - 8.6 °F 58% 29.78 in 10.0 mi Calm Calm - N/A   Overcast
5:53 AM 19.9 °F - 8.1 °F 60% 29.81 in 10.0 mi Calm Calm - N/A   Overcast
6:53 AM 17.1 °F 10.0 °F 8.1 °F 68% 29.83 in 10.0 mi West 4.6 mph - N/A   Mostly Cloudy
7:53 AM 17.1 °F 7.6 °F 7.0 °F 65% 29.85 in 10.0 mi North 6.9 mph - N/A   Mostly Cloudy
8:53 AM 19.0 °F 10.0 °F 7.0 °F 59% 29.86 in 10.0 mi WNW 6.9 mph - N/A   Mostly Cloudy
9:53 AM 21.0 °F 11.4 °F 8.1 °F 57% 29.88 in 10.0 mi NW 8.1 mph - N/A   Overcast
10:53 AM 23.0 °F 14.7 °F 9.0 °F 55% 29.87 in 10.0 mi NNW 6.9 mph 17.3 mph N/A   Partly Cloudy
11:53 AM 26.1 °F 15.0 °F 10.0 °F 51% 29.85 in 10.0 mi NW 12.7 mph - N/A   Clear
12:53 PM 27.0 °F - 8.1 °F 45% 29.85 in 10.0 mi North - - N/A   Clear
1:53 PM 27.0 °F 14.3 °F 7.0 °F 43% 29.85 in 10.0 mi NW 17.3 mph 25.3 mph N/A   Partly Cloudy
2:53 PM 28.0 °F 17.0 °F 9.0 °F 45% 29.85 in 10.0 mi NW 13.8 mph 23.0 mph N/A   Clear
3:53 PM 27.0 °F 16.7 °F 10.0 °F 49% 29.88 in 10.0 mi NNW 11.5 mph 20.7 mph N/A   Mostly Cloudy
4:53 PM 25.0 °F 13.6 °F 10.0 °F 53% 29.92 in 10.0 mi NW 12.7 mph - N/A   Mostly Cloudy
5:53 PM 24.1 °F 14.4 °F 10.9 °F 57% 29.95 in 10.0 mi NNW 9.2 mph - N/A   Clear
6:53 PM 24.1 °F 13.7 °F 10.9 °F 57% 30.00 in 10.0 mi NNW 10.4 mph - N/A   Overcast
7:53 PM 23.0 °F - 12.0 °F 63% 30.04 in 10.0 mi Calm Calm - N/A   Overcast
8:53 PM 23.0 °F 13.9 °F 15.1 °F 72% 30.06 in 10.0 mi NNW 8.1 mph - 0.00 in   Overcast
9:53 PM 21.0 °F 14.6 °F 12.9 °F 71% 30.08 in 10.0 mi NNW 4.6 mph - N/A   Clear
11:53 PM 15.1 °F - 10.0 °F 80% 30.15 in 10.0 mi Calm Calm - N/A   Clear